| time (UTC) | temp F | wind direction | speed MPH | gust MPH | rain 1hr in | rain 24hr in | rain mn in | humidity % | barometer mb |
| 20260831193546 | 60 | 227 | 11.0 | 18.0 | 0.03 | 0.39 | 0.37 | 96 | 1006.8 |
| 20260831192545 | 60 | 221 | 11.0 | 16.0 | 0.02 | 0.38 | 0.37 | 96 | 1006.8 |
| 20260831191604 | 60 | 219 | 11.0 | 16.0 | 0.02 | 0.38 | 0.36 | 97 | 1006.7 |
| 20260831190544 | 60 | 220 | 10.0 | 15.0 | 0.00 | 0.37 | 0.35 | 96 | 1006.7 |
| 20260831185542 | 61 | 221 | 10.0 | 15.0 | 0.00 | 0.36 | 0.34 | 94 | 1006.6 |
| 20260831184541 | 61 | 223 | 10.0 | 15.0 | 0.00 | 0.36 | 0.34 | 93 | 1006.5 |
| 20260831183621 | 61 | 223 | 10.0 | 16.0 | 0.00 | 0.36 | 0.34 | 93 | 1006.4 |
| 20260831182539 | 61 | 218 | 11.0 | 16.0 | 0.00 | 0.36 | 0.34 | 93 | 1006.4 |
| 20260831181538 | 61 | 218 | 11.0 | 16.0 | 0.00 | 0.36 | 0.34 | 94 | 1006.4 |
| 20260831180536 | 61 | 216 | 11.0 | 18.0 | 0.00 | 0.36 | 0.34 | 93 | 1006.4 |
| 20260831175535 | 61 | 214 | 12.0 | 18.0 | 0.00 | 0.36 | 0.34 | 94 | 1006.2 |
| 20260831174534 | 61 | 211 | 12.0 | 19.0 | 0.00 | 0.36 | 0.34 | 94 | 1006.1 |
| 20260831173535 | 61 | 212 | 12.0 | 20.0 | 0.00 | 0.36 | 0.34 | 94 | 1006.1 |
| 20260831172534 | 62 | 213 | 12.0 | 18.0 | 0.00 | 0.36 | 0.34 | 93 | 1006.0 |
| 20260831171533 | 62 | 212 | 11.0 | 18.0 | 0.00 | 0.36 | 0.34 | 93 | 1006.0 |
| 20260831170531 | 62 | 214 | 10.0 | 18.0 | 0.00 | 0.36 | 0.34 | 93 | 1005.9 |
| 20260831165531 | 62 | 215 | 11.0 | 18.0 | 0.00 | 0.36 | 0.34 | 92 | 1005.8 |
| 20260831164530 | 62 | 220 | 12.0 | 19.0 | 0.00 | 0.36 | 0.34 | 92 | 1005.7 |
| 20260831163529 | 62 | 223 | 10.0 | 19.0 | 0.00 | 0.36 | 0.34 | 92 | 1005.6 |
| 20260831162529 | 62 | 215 | 10.0 | 13.0 | 0.00 | 0.36 | 0.34 | 93 | 1005.6 |
| 20260831161547 | 63 | 211 | 10.0 | 17.0 | 0.00 | 0.36 | 0.34 | 93 | 1005.4 |
| 20260831160526 | 63 | 208 | 11.0 | 18.0 | 0.00 | 0.36 | 0.34 | 92 | 1005.3 |
| 20260831155605 | 63 | 217 | 11.0 | 15.0 | 0.00 | 0.36 | 0.34 | 92 | 1005.3 |
| 20260831154524 | 63 | 213 | 11.0 | 18.0 | 0.00 | 0.36 | 0.34 | 92 | 1005.2 |
| 20260831153523 | 63 | 212 | 12.0 | 19.0 | 0.00 | 0.36 | 0.34 | 92 | 1005.3 |
| 20260831152522 | 63 | 215 | 12.0 | 16.0 | 0.00 | 0.36 | 0.34 | 92 | 1005.3 |
| 20260831151521 | 64 | 215 | 10.0 | 16.0 | 0.00 | 0.36 | 0.34 | 92 | 1005.2 |
| 20260831150520 | 63 | 217 | 11.0 | 18.0 | 0.00 | 0.36 | 0.34 | 92 | 1005.2 |
| 20260831145539 | 64 | 220 | 12.0 | 17.0 | 0.00 | 0.36 | 0.34 | 93 | 1005.2 |
| 20260831144518 | 63 | 221 | 12.0 | 18.0 | 0.00 | 0.36 | 0.34 | 92 | 1005.1 |
| 20260831143517 | 63 | 221 | 11.0 | 19.0 | 0.00 | 0.36 | 0.34 | 93 | 1005.0 |
| 20260831142545 | 64 | 218 | 12.0 | 19.0 | 0.00 | 0.36 | 0.34 | 91 | 1005.0 |
| 20260831141544 | 64 | 220 | 12.0 | 18.0 | 0.00 | 0.36 | 0.34 | 91 | 1004.9 |
| 20260831140543 | 64 | 219 | 11.0 | 17.0 | 0.00 | 0.36 | 0.34 | 92 | 1004.8 |
| 20260831135603 | 64 | 213 | 10.0 | 18.0 | 0.00 | 0.36 | 0.34 | 92 | 1004.7 |
| 20260831134542 | 64 | 211 | 9.0 | 15.0 | 0.00 | 0.36 | 0.34 | 94 | 1004.7 |
| 20260831133540 | 64 | 211 | 9.0 | 15.0 | 0.00 | 0.36 | 0.34 | 94 | 1004.7 |
| 20260831132559 | 64 | 216 | 9.0 | 15.0 | 0.03 | 0.36 | 0.34 | 94 | 1004.7 |
| 20260831131539 | 64 | 217 | 9.0 | 15.0 | 0.03 | 0.36 | 0.34 | 93 | 1004.6 |
| 20260831130538 | 64 | 205 | 9.0 | 14.0 | 0.04 | 0.36 | 0.34 | 95 | 1004.5 |
| 20260831125537 | 64 | 211 | 8.0 | 14.0 | 0.04 | 0.36 | 0.34 | 96 | 1004.5 |
| 20260831124536 | 64 | 201 | 6.0 | 13.0 | 0.04 | 0.36 | 0.34 | 96 | 1004.5 |
| 20260831123535 | 64 | 196 | 6.0 | 14.0 | 0.04 | 0.36 | 0.34 | 96 | 1004.3 |
| 20260831122534 | 64 | 192 | 6.0 | 12.0 | 0.01 | 0.33 | 0.31 | 94 | 1004.3 |
| 20260831121653 | 64 | 195 | 7.0 | 12.0 | 0.00 | 0.33 | 0.31 | 94 | 1004.3 |
| 20260831120552 | 64 | 187 | 7.0 | 13.0 | 0.00 | 0.33 | 0.31 | 93 | 1004.3 |
| 20260831115531 | 65 | 187 | 7.0 | 12.0 | 0.00 | 0.32 | 0.31 | 92 | 1004.3 |
| 20260831114530 | 65 | 199 | 7.0 | 13.0 | 0.00 | 0.32 | 0.31 | 91 | 1004.3 |
| 20260831113529 | 65 | 201 | 8.0 | 13.0 | 0.00 | 0.32 | 0.31 | 91 | 1004.2 |
| 20260831112529 | 65 | 197 | 7.0 | 13.0 | 0.00 | 0.32 | 0.31 | 92 | 1004.2 |
| 20260831111528 | 65 | 204 | 8.0 | 16.0 | 0.00 | 0.32 | 0.31 | 92 | 1004.1 |
| 20260831110528 | 65 | 209 | 8.0 | 16.0 | 0.00 | 0.32 | 0.31 | 93 | 1004.1 |
| 20260831105526 | 64 | 200 | 8.0 | 14.0 | 0.00 | 0.32 | 0.31 | 94 | 1004.0 |
| 20260831104526 | 64 | 193 | 8.0 | 13.0 | 0.00 | 0.32 | 0.31 | 94 | 1003.9 |
| 20260831103524 | 64 | 194 | 5.0 | 9.0 | 0.00 | 0.32 | 0.30 | 94 | 1003.9 |
| 20260831102524 | 64 | 195 | 5.0 | 9.0 | 0.00 | 0.32 | 0.30 | 95 | 1003.9 |
| 20260831101543 | 64 | 191 | 7.0 | 12.0 | 0.00 | 0.32 | 0.30 | 95 | 1003.8 |
| 20260831100521 | 64 | 187 | 7.0 | 12.0 | 0.00 | 0.32 | 0.30 | 94 | 1003.8 |
| 20260831095521 | 64 | 201 | 6.0 | 11.0 | 0.00 | 0.32 | 0.30 | 96 | 1003.7 |
| 20260831094519 | 64 | 198 | 7.0 | 14.0 | 0.00 | 0.32 | 0.30 | 96 | 1003.7 |
| 20260831093519 | 63 | 196 | 7.0 | 16.0 | 0.00 | 0.32 | 0.30 | 97 | 1003.7 |
| 20260831092538 | 63 | 195 | 8.0 | 16.0 | 0.02 | 0.32 | 0.30 | 97 | 1003.6 |
| 20260831091517 | 63 | 191 | 6.0 | 13.0 | 0.04 | 0.32 | 0.30 | 98 | 1003.6 |
| 20260831090546 | 62 | 176 | 7.0 | 13.0 | 0.05 | 0.32 | 0.30 | 98 | 1003.5 |
| 20260831085545 | 62 | 175 | 6.0 | 14.0 | 0.07 | 0.32 | 0.30 | 98 | 1003.5 |
| 20260831084544 | 62 | 166 | 5.0 | 12.0 | 0.07 | 0.32 | 0.30 | 99 | 1003.5 |
| 20260831083543 | 61 | 156 | 7.0 | 14.0 | 0.07 | 0.32 | 0.30 | 98 | 1003.5 |
| 20260831082542 | 61 | 158 | 6.0 | 11.0 | 0.05 | 0.31 | 0.29 | 98 | 1003.5 |
| 20260831081542 | 61 | 165 | 6.0 | 14.0 | 0.03 | 0.28 | 0.26 | 98 | 1003.5 |
| 20260831080541 | 61 | 152 | 6.0 | 14.0 | 0.02 | 0.27 | 0.25 | 98 | 1003.6 |
| 20260831075539 | 61 | 149 | 6.0 | 14.0 | 0.01 | 0.26 | 0.24 | 98 | 1003.6 |
| 20260831074539 | 61 | 161 | 6.0 | 12.0 | 0.01 | 0.25 | 0.24 | 98 | 1003.6 |
| 20260831073618 | 61 | 152 | 6.0 | 13.0 | 0.01 | 0.25 | 0.23 | 98 | 1003.7 |
| 20260831072536 | 61 | 154 | 6.0 | 12.0 | 0.01 | 0.25 | 0.23 | 98 | 1003.7 |
| 20260831071536 | 61 | 157 | 6.0 | 15.0 | 0.01 | 0.25 | 0.23 | 98 | 1003.8 |
| 20260831070555 | 61 | 160 | 6.0 | 14.0 | 0.02 | 0.25 | 0.23 | 98 | 1003.8 |
| 20260831065533 | 61 | 149 | 5.0 | 12.0 | 0.03 | 0.25 | 0.23 | 98 | 1003.8 |
| 20260831064532 | 61 | 155 | 5.0 | 10.0 | 0.03 | 0.25 | 0.23 | 98 | 1003.8 |
| 20260831063532 | 61 | 151 | 6.0 | 12.0 | 0.03 | 0.25 | 0.23 | 98 | 1003.9 |
| 20260831062531 | 61 | 145 | 5.0 | 11.0 | 0.03 | 0.24 | 0.23 | 98 | 1003.9 |
| 20260831061528 | 61 | 135 | 5.0 | 9.0 | 0.03 | 0.24 | 0.22 | 98 | 1003.9 |
| 20260831060527 | 61 | 134 | 5.0 | 10.0 | 0.02 | 0.23 | 0.21 | 98 | 1004.0 |
| 20260831055526 | 61 | 138 | 5.0 | 10.0 | 0.01 | 0.22 | 0.20 | 98 | 1004.1 |
| 20260831054546 | 61 | 138 | 6.0 | 11.0 | 0.04 | 0.22 | 0.20 | 98 | 1004.1 |
| 20260831053525 | 61 | 144 | 6.0 | 12.0 | 0.08 | 0.22 | 0.20 | 98 | 1004.2 |
| 20260831052526 | 61 | 139 | 6.0 | 12.0 | 0.12 | 0.22 | 0.20 | 98 | 1004.2 |
| 20260831051542 | 61 | 137 | 5.0 | 10.0 | 0.16 | 0.22 | 0.20 | 98 | 1004.3 |
| 20260831050521 | 61 | 136 | 6.0 | 10.0 | 0.16 | 0.22 | 0.20 | 98 | 1004.3 |
| 20260831045521 | 60 | 125 | 6.0 | 12.0 | 0.16 | 0.21 | 0.19 | 98 | 1004.4 |
| 20260831044539 | 60 | 118 | 5.0 | 12.0 | 0.13 | 0.18 | 0.16 | 98 | 1004.5 |
| 20260831043518 | 60 | 125 | 4.0 | 9.0 | 0.09 | 0.13 | 0.11 | 98 | 1004.6 |
| 20260831042518 | 60 | 125 | 5.0 | 9.0 | 0.06 | 0.09 | 0.08 | 98 | 1004.7 |
| 20260831041537 | 60 | 123 | 5.0 | 9.0 | 0.04 | 0.06 | 0.04 | 98 | 1004.8 |
| 20260831040515 | 60 | 128 | 5.0 | 8.0 | 0.03 | 0.05 | 0.03 | 98 | 1004.9 |
| 20260831035545 | 60 | 129 | 5.0 | 8.0 | 0.03 | 0.05 | 0.03 | 98 | 1004.9 |
| 20260831034544 | 60 | 135 | 5.0 | 10.0 | 0.03 | 0.05 | 0.03 | 98 | 1005.0 |
| 20260831033542 | 60 | 134 | 5.0 | 10.0 | 0.03 | 0.05 | 0.03 | 98 | 1005.1 |
| 20260831032543 | 61 | 136 | 5.0 | 11.0 | 0.01 | 0.03 | 0.01 | 97 | 1005.2 |
| 20260831031540 | 61 | 138 | 6.0 | 11.0 | 0.00 | 0.02 | 0.00 | 97 | 1005.2 |
| 20260831030539 | 61 | 140 | 5.0 | 10.0 | 0.00 | 0.02 | 0.00 | 97 | 1005.3 |
| 20260831025538 | 61 | 145 | 5.0 | 9.0 | 0.00 | 0.02 | 0.00 | 96 | 1005.4 |
| 20260831024538 | 61 | 148 | 4.0 | 9.0 | 0.00 | 0.02 | 0.00 | 96 | 1005.5 |
| 20260831023538 | 61 | 149 | 4.0 | 9.0 | 0.00 | 0.02 | 0.00 | 96 | 1005.6 |
| 20260831022536 | 61 | 142 | 4.0 | 8.0 | 0.00 | 0.02 | 0.00 | 96 | 1005.8 |
| 20260831021536 | 61 | 148 | 5.0 | 10.0 | 0.00 | 0.02 | 0.00 | 96 | 1005.8 |
| 20260831020535 | 61 | 142 | 5.0 | 11.0 | 0.00 | 0.02 | 0.00 | 96 | 1005.9 |
| 20260831015555 | 61 | 136 | 5.0 | 11.0 | 0.00 | 0.02 | 0.00 | 96 | 1005.9 |
| 20260831014533 | 61 | 132 | 5.0 | 10.0 | 0.00 | 0.02 | 0.00 | 96 | 1006.0 |
| 20260831013533 | 61 | 133 | 5.0 | 9.0 | 0.00 | 0.02 | 0.00 | 96 | 1006.1 |
| 20260831012531 | 60 | 137 | 4.0 | 9.0 | 0.00 | 0.02 | 0.00 | 97 | 1006.1 |
| 20260831011530 | 60 | 139 | 4.0 | 8.0 | 0.00 | 0.02 | 0.00 | 97 | 1006.2 |
| 20260831010529 | 60 | 129 | 4.0 | 8.0 | 0.00 | 0.02 | 0.00 | 97 | 1006.2 |
| 20260831005528 | 60 | 126 | 4.0 | 8.0 | 0.00 | 0.02 | 0.00 | 97 | 1006.3 |
| 20260831004547 | 60 | 128 | 4.0 | 8.0 | 0.00 | 0.02 | 0.00 | 97 | 1006.3 |
| 20260831003526 | 60 | 129 | 4.0 | 8.0 | 0.00 | 0.02 | 0.00 | 97 | 1006.4 |
| 20260831002525 | 61 | 133 | 4.0 | 7.0 | 0.00 | 0.02 | 0.00 | 97 | 1006.5 |
| 20260831001524 | 61 | 138 | 5.0 | 10.0 | 0.00 | 0.02 | 0.00 | 97 | 1006.6 |
| 20260831000523 | 61 | 141 | 5.0 | 10.0 | 0.00 | 0.02 | 0.00 | 97 | 1006.7 |
| 20260830235522 | 61 | 147 | 6.0 | 11.0 | 0.00 | 0.03 | 0.03 | 97 | 1006.8 |
| 20260830234521 | 61 | 154 | 5.0 | 10.0 | 0.00 | 0.04 | 0.03 | 97 | 1006.9 |
| 20260830233541 | 61 | 156 | 6.0 | 10.0 | 0.00 | 0.04 | 0.03 | 97 | 1006.9 |
| 20260830232539 | 61 | 151 | 6.0 | 13.0 | 0.00 | 0.05 | 0.03 | 97 | 1007.0 |
| 20260830231518 | 61 | 145 | 6.0 | 15.0 | 0.00 | 0.06 | 0.03 | 97 | 1007.0 |
| 20260830230517 | 61 | 140 | 6.0 | 15.0 | 0.00 | 0.06 | 0.03 | 97 | 1007.0 |
| 20260830225516 | 60 | 137 | 7.0 | 12.0 | 0.00 | 0.07 | 0.03 | 97 | 1007.0 |
| 20260830224545 | 60 | 128 | 6.0 | 10.0 | 0.01 | 0.08 | 0.03 | 98 | 1007.1 |
| 20260830223544 | 60 | 125 | 5.0 | 10.0 | 0.01 | 0.09 | 0.03 | 98 | 1007.1 |
| 20260830222544 | 60 | 126 | 6.0 | 11.0 | 0.01 | 0.09 | 0.03 | 98 | 1007.1 |
| 20260830221544 | 60 | 130 | 6.0 | 11.0 | 0.01 | 0.09 | 0.03 | 98 | 1007.2 |
| 20260830220543 | 60 | 135 | 5.0 | 10.0 | 0.01 | 0.09 | 0.03 | 98 | 1007.3 |
| 20260830215542 | 60 | 132 | 5.0 | 10.0 | 0.01 | 0.09 | 0.03 | 97 | 1007.3 |
| 20260830214541 | 60 | 122 | 6.0 | 10.0 | 0.00 | 0.08 | 0.02 | 98 | 1007.3 |
| 20260830213600 | 60 | 126 | 6.0 | 10.0 | 0.00 | 0.08 | 0.01 | 98 | 1007.5 |
| 20260830212539 | 60 | 120 | 6.0 | 9.0 | 0.00 | 0.08 | 0.01 | 98 | 1007.6 |
| 20260830211538 | 60 | 116 | 6.0 | 10.0 | 0.00 | 0.08 | 0.01 | 98 | 1007.7 |
| 20260830210537 | 60 | 121 | 5.0 | 8.0 | 0.00 | 0.08 | 0.01 | 98 | 1007.8 |
| 20260830205536 | 59 | 121 | 4.0 | 7.0 | 0.00 | 0.08 | 0.01 | 98 | 1007.9 |
| 20260830204535 | 59 | 129 | 4.0 | 7.0 | 0.00 | 0.07 | 0.01 | 97 | 1007.9 |
| 20260830203534 | 59 | 128 | 4.0 | 6.0 | 0.00 | 0.07 | 0.01 | 97 | 1008.0 |
| 20260830202533 | 59 | 121 | 4.0 | 6.0 | 0.00 | 0.07 | 0.01 | 97 | 1007.9 |
| 20260830201613 | 59 | 122 | 3.0 | 4.0 | 0.00 | 0.07 | 0.01 | 96 | 1007.9 |
| 20260830200530 | 59 | 143 | 3.0 | 5.0 | 0.00 | 0.07 | 0.01 | 96 | 1008.0 |
| 20260830195529 | 59 | 145 | 4.0 | 6.0 | 0.00 | 0.07 | 0.01 | 96 | 1008.1 |
| 20260830194528 | 59 | 143 | 4.0 | 6.0 | 0.00 | 0.07 | 0.01 | 96 | 1008.1 |